owner,sensor,date,latitude,longitude,vertical_datum,wind_speed,wind_to_direction,wind_speed_of_gust,qcFlag 
LUMCON,ioos:station:LUMCON:103:1,2005-04-01T00:00:00Z,30.1889,-90.1683,1.0,5.7,90.0,7.2,'11111222,11111222,11111222' 
LUMCON,ioos:station:LUMCON:103:1,2005-04-01T02:00:00Z,30.1889,-90.1683,1.0,4.1,80.0,4.6,'11111222,11111222,11111222' 
LUMCON,ioos:station:LUMCON:103:1,2005-04-01T03:00:00Z,30.1889,-90.1683,1.0,4.6,80.0,5.7,'11111222,11111222,11111222' 
LUMCON,ioos:station:LUMCON:103:1,2005-04-01T04:00:00Z,30.1889,-90.1683,1.0,9.8,90.0,11.8,'11111222,11111222,11111222' 
LUMCON,ioos:station:LUMCON:103:1,2005-04-01T05:00:00Z,30.1889,-90.1683,1.0,9.8,90.0,11.3,'11111222,11111222,11111222' 
LUMCON,ioos:station:LUMCON:103:1,2005-04-01T06:00:00Z,30.1889,-90.1683,1.0,8.8,90.0,10.3,'11111222,11111222,11111222' 
LUMCON,ioos:station:LUMCON:103:1,2005-04-01T07:00:00Z,30.1889,-90.1683,1.0,7.7,120.0,8.8,'11111222,11111222,11111222' 
LUMCON,ioos:station:LUMCON:103:1,2005-04-01T08:00:00Z,30.1889,-90.1683,1.0,4.1,200.0,5.1,'11111222,11111222,11111222' 
LUMCON,ioos:station:LUMCON:103:1,2005-04-01T09:00:00Z,30.1889,-90.1683,1.0,6.7,220.0,7.7,'11111222,11111222,11111222' 
LUMCON,ioos:station:LUMCON:103:1,2005-04-01T10:00:00Z,30.1889,-90.1683,1.0,5.7,210.0,6.2,'11111222,11111222,11111222' 
LUMCON,ioos:station:LUMCON:103:1,2005-04-01T11:00:00Z,30.1889,-90.1683,1.0,5.1,250.0,6.7,'11111222,11111222,11111222' 
LUMCON,ioos:station:LUMCON:103:1,2005-04-01T12:00:00Z,30.1889,-90.1683,1.0,4.6,250.0,6.2,'11111222,11111222,11111222' 
LUMCON,ioos:station:LUMCON:103:1,2005-04-01T13:00:00Z,30.1889,-90.1683,1.0,5.1,330.0,7.2,'11111222,11111222,11111222' 
LUMCON,ioos:station:LUMCON:103:1,2005-04-01T14:00:00Z,30.1889,-90.1683,1.0,3.1,0.0,4.1,'11111222,11111222,11111222' 
LUMCON,ioos:station:LUMCON:103:1,2005-04-01T15:00:00Z,30.1889,-90.1683,1.0,4.1,320.0,5.7,'11111222,11111222,11111222' 
LUMCON,ioos:station:LUMCON:103:1,2005-04-01T16:00:00Z,30.1889,-90.1683,1.0,0.5,50.0,1.0,'11111222,11111222,11111222' 
LUMCON,ioos:station:LUMCON:103:1,2005-04-01T17:00:00Z,30.1889,-90.1683,1.0,0.5,160.0,1.0,'11111222,11111222,11111222' 
LUMCON,ioos:station:LUMCON:103:1,2005-04-01T18:00:00Z,30.1889,-90.1683,1.0,0.5,160.0,1.5,'11111222,11111222,11111222' 
LUMCON,ioos:station:LUMCON:103:1,2005-04-01T19:00:00Z,30.1889,-90.1683,1.0,8.8,290.0,11.3,'11111222,11111222,11111222' 
LUMCON,ioos:station:LUMCON:103:1,2005-04-01T20:00:00Z,30.1889,-90.1683,1.0,9.3,310.0,11.8,'11111222,11111222,11111222' 
LUMCON,ioos:station:LUMCON:103:1,2005-04-01T21:00:00Z,30.1889,-90.1683,1.0,10.8,320.0,12.9,'11111222,11111222,11111222' 
LUMCON,ioos:station:LUMCON:103:1,2005-04-01T22:00:00Z,30.1889,-90.1683,1.0,9.8,320.0,12.9,'11111222,11111222,11111222' 
LUMCON,ioos:station:LUMCON:103:1,2005-04-01T23:00:00Z,30.1889,-90.1683,1.0,7.2,320.0,10.8,'11111222,11111222,11111222' 
LUMCON,ioos:station:LUMCON:103:1,2005-04-02T00:00:00Z,30.1889,-90.1683,1.0,6.7,330.0,8.2,'11111222,11111222,11111222' 
LUMCON,ioos:station:LUMCON:103:1,2005-04-02T01:00:00Z,30.1889,-90.1683,1.0,4.1,320.0,5.7,'11111222,11111222,11111222' 
LUMCON,ioos:station:LUMCON:103:1,2005-04-02T02:00:00Z,30.1889,-90.1683,1.0,6.7,330.0,9.3,'11111222,11111222,11111222' 
LUMCON,ioos:station:LUMCON:103:1,2005-04-02T03:00:00Z,30.1889,-90.1683,1.0,10.3,340.0,12.9,'11111222,11111222,11111222' 
LUMCON,ioos:station:LUMCON:103:1,2005-04-02T04:00:00Z,30.1889,-90.1683,1.0,7.2,330.0,10.3,'11111222,11111222,11111222' 
LUMCON,ioos:station:LUMCON:103:1,2005-04-02T05:00:00Z,30.1889,-90.1683,1.0,6.7,330.0,9.3,'11111222,11111222,11111222' 
LUMCON,ioos:station:LUMCON:103:1,2005-04-02T06:00:00Z,30.1889,-90.1683,1.0,6.2,320.0,7.7,'11111222,11111222,11111222' 
LUMCON,ioos:station:LUMCON:103:1,2005-04-02T07:00:00Z,30.1889,-90.1683,1.0,5.7,310.0,7.7,'11111222,11111222,11111222' 
LUMCON,ioos:station:LUMCON:103:1,2005-04-02T08:00:00Z,30.1889,-90.1683,1.0,6.2,310.0,7.7,'11111222,11111222,11111222' 
LUMCON,ioos:station:LUMCON:103:1,2005-04-02T09:00:00Z,30.1889,-90.1683,1.0,5.1,300.0,7.7,'11111222,11111222,11111222' 
LUMCON,ioos:station:LUMCON:103:1,2005-04-02T10:00:00Z,30.1889,-90.1683,1.0,4.6,300.0,6.2,'11111222,11111222,11111222' 
LUMCON,ioos:station:LUMCON:103:1,2005-04-02T11:00:00Z,30.1889,-90.1683,1.0,4.1,280.0,5.1,'11111222,11111222,11111222' 
LUMCON,ioos:station:LUMCON:103:1,2005-04-02T13:00:00Z,30.1889,-90.1683,1.0,6.7,310.0,8.2,'11111222,11111222,11111222' 
LUMCON,ioos:station:LUMCON:103:1,2005-04-02T14:00:00Z,30.1889,-90.1683,1.0,6.7,320.0,9.3,'11111222,11111222,11111222' 
LUMCON,ioos:station:LUMCON:103:1,2005-04-02T15:00:00Z,30.1889,-90.1683,1.0,8.8,330.0,11.8,'11111222,11111222,11111222' 
LUMCON,ioos:station:LUMCON:103:1,2005-04-02T16:00:00Z,30.1889,-90.1683,1.0,10.3,320.0,14.4,'11111222,11111222,11111222' 
LUMCON,ioos:station:LUMCON:103:1,2005-04-02T17:00:00Z,30.1889,-90.1683,1.0,8.2,330.0,10.8,'11111222,11111222,11111222' 
LUMCON,ioos:station:LUMCON:103:1,2005-04-02T18:00:00Z,30.1889,-90.1683,1.0,8.8,310.0,11.8,'11111222,11111222,11111222' 
LUMCON,ioos:station:LUMCON:103:1,2005-04-02T19:00:00Z,30.1889,-90.1683,1.0,6.7,330.0,11.3,'11111222,11111222,11111222' 
LUMCON,ioos:station:LUMCON:103:1,2005-04-02T20:00:00Z,30.1889,-90.1683,1.0,5.7,320.0,9.8,'11111222,11111222,11111222' 
LUMCON,ioos:station:LUMCON:103:1,2005-04-02T21:00:00Z,30.1889,-90.1683,1.0,7.7,350.0,9.8,'11111222,11111222,11111222' 
LUMCON,ioos:station:LUMCON:103:1,2005-04-02T23:00:00Z,30.1889,-90.1683,1.0,6.2,320.0,8.2,'11111222,11111222,11111222' 
LUMCON,ioos:station:LUMCON:103:1,2005-04-03T00:00:00Z,30.1889,-90.1683,1.0,4.6,330.0,5.7,'11111222,11111222,11111222' 
LUMCON,ioos:station:LUMCON:103:1,2005-04-03T01:00:00Z,30.1889,-90.1683,1.0,3.6,330.0,4.1,'11111222,11111222,11111222' 
LUMCON,ioos:station:LUMCON:103:1,2005-04-03T02:00:00Z,30.1889,-90.1683,1.0,3.1,340.0,3.6,'11111222,11111222,11111222' 
LUMCON,ioos:station:LUMCON:103:1,2005-04-03T03:00:00Z,30.1889,-90.1683,1.0,2.6,310.0,3.1,'11111222,11111222,11111222' 
LUMCON,ioos:station:LUMCON:103:1,2005-04-03T04:00:00Z,30.1889,-90.1683,1.0,2.6,310.0,3.1,'11111222,11111222,11111222' 
LUMCON,ioos:station:LUMCON:103:1,2005-04-03T05:00:00Z,30.1889,-90.1683,1.0,3.1,10.0,4.1,'11111222,11111222,11111222' 
LUMCON,ioos:station:LUMCON:103:1,2005-04-03T06:00:00Z,30.1889,-90.1683,1.0,2.6,20.0,3.6,'11111222,11111222,11111222' 
LUMCON,ioos:station:LUMCON:103:1,2005-04-03T07:00:00Z,30.1889,-90.1683,1.0,2.6,30.0,3.6,'11111222,11111222,11111222' 
LUMCON,ioos:station:LUMCON:103:1,2005-04-03T08:00:00Z,30.1889,-90.1683,1.0,4.6,50.0,5.7,'11111222,11111222,11111222' 
LUMCON,ioos:station:LUMCON:103:1,2005-04-03T09:00:00Z,30.1889,-90.1683,1.0,4.1,50.0,4.6,'11111222,11111222,11111222' 
LUMCON,ioos:station:LUMCON:103:1,2005-04-03T10:00:00Z,30.1889,-90.1683,1.0,3.6,60.0,4.1,'11111222,11111222,11111222' 
LUMCON,ioos:station:LUMCON:103:1,2005-04-03T11:00:00Z,30.1889,-90.1683,1.0,4.1,80.0,5.1,'11111222,11111222,11111222' 
LUMCON,ioos:station:LUMCON:103:1,2005-04-03T12:00:00Z,30.1889,-90.1683,1.0,4.1,100.0,5.1,'11111222,11111222,11111222' 
LUMCON,ioos:station:LUMCON:103:1,2005-04-03T13:00:00Z,30.1889,-90.1683,1.0,4.1,100.0,5.1,'11111222,11111222,11111222' 
LUMCON,ioos:station:LUMCON:103:1,2005-04-03T14:00:00Z,30.1889,-90.1683,1.0,4.1,100.0,5.7,'11111222,11111222,11111222' 
LUMCON,ioos:station:LUMCON:103:1,2005-04-03T15:00:00Z,30.1889,-90.1683,1.0,4.1,110.0,5.1,'11111222,11111222,11111222' 
LUMCON,ioos:station:LUMCON:103:1,2005-04-03T16:00:00Z,30.1889,-90.1683,1.0,4.1,150.0,4.6,'11111222,11111222,11111222' 
LUMCON,ioos:station:LUMCON:103:1,2005-04-03T17:00:00Z,30.1889,-90.1683,1.0,2.6,160.0,3.1,'11111222,11111222,11111222' 
LUMCON,ioos:station:LUMCON:103:1,2005-04-03T18:00:00Z,30.1889,-90.1683,1.0,3.1,130.0,3.6,'11111222,11111222,11111222' 
LUMCON,ioos:station:LUMCON:103:1,2005-04-03T19:00:00Z,30.1889,-90.1683,1.0,3.1,130.0,3.6,'11111222,11111222,11111222' 
LUMCON,ioos:station:LUMCON:103:1,2005-04-03T20:00:00Z,30.1889,-90.1683,1.0,3.1,120.0,3.6,'11111222,11111222,11111222' 
LUMCON,ioos:station:LUMCON:103:1,2005-04-03T21:00:00Z,30.1889,-90.1683,1.0,2.1,100.0,2.6,'11111222,11111222,11111222' 
LUMCON,ioos:station:LUMCON:103:1,2005-04-03T22:00:00Z,30.1889,-90.1683,1.0,2.6,120.0,2.6,'11111222,11111222,11111222' 
LUMCON,ioos:station:LUMCON:103:1,2005-04-03T23:00:00Z,30.1889,-90.1683,1.0,4.1,110.0,4.6,'11111222,11111222,11111222' 
LUMCON,ioos:station:LUMCON:103:1,2005-04-04T00:00:00Z,30.1889,-90.1683,1.0,5.1,130.0,5.7,'11111222,11111222,11111222' 
LUMCON,ioos:station:LUMCON:103:1,2005-04-04T01:00:00Z,30.1889,-90.1683,1.0,8.2,160.0,9.3,'11111222,11111222,11111222' 
LUMCON,ioos:station:LUMCON:103:1,2005-04-04T02:00:00Z,30.1889,-90.1683,1.0,7.7,180.0,8.8,'11111222,11111222,11111222' 
LUMCON,ioos:station:LUMCON:103:1,2005-04-04T03:00:00Z,30.1889,-90.1683,1.0,7.2,210.0,8.2,'11111222,11111222,11111222' 
LUMCON,ioos:station:LUMCON:103:1,2005-04-04T04:00:00Z,30.1889,-90.1683,1.0,4.1,230.0,4.6,'11111222,11111222,11111222' 
LUMCON,ioos:station:LUMCON:103:1,2005-04-04T05:00:00Z,30.1889,-90.1683,1.0,4.1,230.0,4.6,'11111222,11111222,11111222' 
LUMCON,ioos:station:LUMCON:103:1,2005-04-04T06:00:00Z,30.1889,-90.1683,1.0,4.1,220.0,5.1,'11111222,11111222,11111222' 
LUMCON,ioos:station:LUMCON:103:1,2005-04-04T07:00:00Z,30.1889,-90.1683,1.0,2.6,240.0,3.1,'11111222,11111222,11111222' 
LUMCON,ioos:station:LUMCON:103:1,2005-04-04T08:00:00Z,30.1889,-90.1683,1.0,2.6,250.0,3.1,'11111222,11111222,11111222' 
LUMCON,ioos:station:LUMCON:103:1,2005-04-04T09:00:00Z,30.1889,-90.1683,1.0,1.5,260.0,2.1,'11111222,11111222,11111222' 
LUMCON,ioos:station:LUMCON:103:1,2005-04-04T10:00:00Z,30.1889,-90.1683,1.0,0.5,310.0,1.0,'11111222,11111222,11111222' 
LUMCON,ioos:station:LUMCON:103:1,2005-04-04T11:00:00Z,30.1889,-90.1683,1.0,1.5,350.0,1.5,'11111222,11111222,11111222' 
LUMCON,ioos:station:LUMCON:103:1,2005-04-04T12:00:00Z,30.1889,-90.1683,1.0,2.1,40.0,2.6,'11111222,11111222,11111222' 
LUMCON,ioos:station:LUMCON:103:1,2005-04-04T13:00:00Z,30.1889,-90.1683,1.0,2.6,50.0,3.1,'11111222,11111222,11111222' 
LUMCON,ioos:station:LUMCON:103:1,2005-04-04T14:00:00Z,30.1889,-90.1683,1.0,2.6,70.0,3.6,'11111222,11111222,11111222' 
LUMCON,ioos:station:LUMCON:103:1,2005-04-04T15:00:00Z,30.1889,-90.1683,1.0,3.6,140.0,4.1,'11111222,11111222,11111222' 
LUMCON,ioos:station:LUMCON:103:1,2005-04-04T16:00:00Z,30.1889,-90.1683,1.0,3.1,120.0,3.6,'11111222,11111222,11111222' 
LUMCON,ioos:station:LUMCON:103:1,2005-04-04T17:00:00Z,30.1889,-90.1683,1.0,3.6,100.0,4.1,'11111222,11111222,11111222' 
LUMCON,ioos:station:LUMCON:103:1,2005-04-04T18:00:00Z,30.1889,-90.1683,1.0,4.6,90.0,5.7,'11111222,11111222,11111222' 
LUMCON,ioos:station:LUMCON:103:1,2005-04-04T19:00:00Z,30.1889,-90.1683,1.0,5.1,100.0,6.2,'11111222,11111222,11111222' 
LUMCON,ioos:station:LUMCON:103:1,2005-04-04T20:00:00Z,30.1889,-90.1683,1.0,6.7,100.0,7.7,'11111222,11111222,11111222' 
LUMCON,ioos:station:LUMCON:103:1,2005-04-04T21:00:00Z,30.1889,-90.1683,1.0,7.2,100.0,8.2,'11111222,11111222,11111222' 
LUMCON,ioos:station:LUMCON:103:1,2005-04-04T22:00:00Z,30.1889,-90.1683,1.0,8.8,100.0,9.8,'11111222,11111222,11111222' 
LUMCON,ioos:station:LUMCON:103:1,2005-04-04T23:00:00Z,30.1889,-90.1683,1.0,7.7,100.0,9.3,'11111222,11111222,11111222' 
LUMCON,ioos:station:LUMCON:103:1,2005-04-05T00:00:00Z,30.1889,-90.1683,1.0,7.7,90.0,9.3,'11111222,11111222,11111222' 
LUMCON,ioos:station:LUMCON:103:1,2005-04-05T01:00:00Z,30.1889,-90.1683,1.0,4.6,120.0,6.2,'11111222,11111222,11111222' 
LUMCON,ioos:station:LUMCON:103:1,2005-04-05T02:00:00Z,30.1889,-90.1683,1.0,7.2,150.0,8.2,'11111222,11111222,11111222' 
LUMCON,ioos:station:LUMCON:103:1,2005-04-05T03:00:00Z,30.1889,-90.1683,1.0,8.8,140.0,10.3,'11111222,11111222,11111222' 
LUMCON,ioos:station:LUMCON:103:1,2005-04-05T04:00:00Z,30.1889,-90.1683,1.0,6.7,140.0,7.7,'11111222,11111222,11111222' 
LUMCON,ioos:station:LUMCON:103:1,2005-04-05T05:00:00Z,30.1889,-90.1683,1.0,7.2,140.0,8.2,'11111222,11111222,11111222' 
LUMCON,ioos:station:LUMCON:103:1,2005-04-05T06:00:00Z,30.1889,-90.1683,1.0,8.8,130.0,10.3,'11111222,11111222,11111222' 
LUMCON,ioos:station:LUMCON:103:1,2005-04-05T07:00:00Z,30.1889,-90.1683,1.0,8.2,140.0,10.3,'11111222,11111222,11111222' 
LUMCON,ioos:station:LUMCON:103:1,2005-04-05T08:00:00Z,30.1889,-90.1683,1.0,6.7,140.0,7.7,'11111222,11111222,11111222' 
LUMCON,ioos:station:LUMCON:103:1,2005-04-05T09:00:00Z,30.1889,-90.1683,1.0,4.1,140.0,5.1,'11111222,11111222,11111222' 
LUMCON,ioos:station:LUMCON:103:1,2005-04-05T10:00:00Z,30.1889,-90.1683,1.0,5.7,130.0,6.7,'11111222,11111222,11111222' 
LUMCON,ioos:station:LUMCON:103:1,2005-04-05T11:00:00Z,30.1889,-90.1683,1.0,5.7,130.0,6.7,'11111222,11111222,11111222' 
LUMCON,ioos:station:LUMCON:103:1,2005-04-05T12:00:00Z,30.1889,-90.1683,1.0,5.7,120.0,6.7,'11111222,11111222,11111222' 
LUMCON,ioos:station:LUMCON:103:1,2005-04-05T13:00:00Z,30.1889,-90.1683,1.0,6.7,120.0,7.7,'11111222,11111222,11111222' 
LUMCON,ioos:station:LUMCON:103:1,2005-04-05T14:00:00Z,30.1889,-90.1683,1.0,7.7,110.0,8.8,'11111222,11111222,11111222' 
LUMCON,ioos:station:LUMCON:103:1,2005-04-05T15:00:00Z,30.1889,-90.1683,1.0,6.2,110.0,7.2,'11111222,11111222,11111222' 
LUMCON,ioos:station:LUMCON:103:1,2005-04-05T16:00:00Z,30.1889,-90.1683,1.0,7.2,110.0,8.2,'11111222,11111222,11111222' 
LUMCON,ioos:station:LUMCON:103:1,2005-04-05T17:00:00Z,30.1889,-90.1683,1.0,7.7,110.0,8.8,'11111222,11111222,11111222' 
LUMCON,ioos:station:LUMCON:103:1,2005-04-05T18:00:00Z,30.1889,-90.1683,1.0,7.2,100.0,8.2,'11111222,11111222,11111222' 
LUMCON,ioos:station:LUMCON:103:1,2005-04-05T19:00:00Z,30.1889,-90.1683,1.0,9.3,110.0,10.8,'11111222,11111222,11111222' 
LUMCON,ioos:station:LUMCON:103:1,2005-04-05T20:00:00Z,30.1889,-90.1683,1.0,10.3,110.0,11.3,'11111222,11111222,11111222' 
LUMCON,ioos:station:LUMCON:103:1,2005-04-05T21:00:00Z,30.1889,-90.1683,1.0,10.8,110.0,12.9,'11111222,11111222,11111222' 
LUMCON,ioos:station:LUMCON:103:1,2005-04-05T22:00:00Z,30.1889,-90.1683,1.0,10.8,110.0,13.4,'11111222,11111222,11111222' 
LUMCON,ioos:station:LUMCON:103:1,2005-04-05T23:00:00Z,30.1889,-90.1683,1.0,9.3,110.0,10.8,'11111222,11111222,11111222' 
LUMCON,ioos:station:LUMCON:103:1,2005-04-06T00:00:00Z,30.1889,-90.1683,1.0,9.8,110.0,11.3,'11111222,11111222,11111222' 
LUMCON,ioos:station:LUMCON:103:1,2005-04-06T01:00:00Z,30.1889,-90.1683,1.0,9.8,120.0,11.3,'11111222,11111222,11111222' 
LUMCON,ioos:station:LUMCON:103:1,2005-04-06T02:00:00Z,30.1889,-90.1683,1.0,9.8,120.0,10.8,'11111222,11111222,11111222' 
LUMCON,ioos:station:LUMCON:103:1,2005-04-06T03:00:00Z,30.1889,-90.1683,1.0,10.3,120.0,12.4,'11111222,11111222,11111222' 
LUMCON,ioos:station:LUMCON:103:1,2005-04-06T04:00:00Z,30.1889,-90.1683,1.0,10.3,120.0,12.9,'11111222,11111222,11111222' 
LUMCON,ioos:station:LUMCON:103:1,2005-04-06T05:00:00Z,30.1889,-90.1683,1.0,8.2,130.0,9.3,'11111222,11111222,11111222' 
LUMCON,ioos:station:LUMCON:103:1,2005-04-06T06:00:00Z,30.1889,-90.1683,1.0,7.7,130.0,9.3,'11111222,11111222,11111222' 
LUMCON,ioos:station:LUMCON:103:1,2005-04-06T07:00:00Z,30.1889,-90.1683,1.0,5.7,130.0,6.2,'11111222,11111222,11111222' 
LUMCON,ioos:station:LUMCON:103:1,2005-04-06T08:00:00Z,30.1889,-90.1683,1.0,7.2,120.0,8.2,'11111222,11111222,11111222' 
LUMCON,ioos:station:LUMCON:103:1,2005-04-06T09:00:00Z,30.1889,-90.1683,1.0,10.3,130.0,11.8,'11111222,11111222,11111222' 
LUMCON,ioos:station:LUMCON:103:1,2005-04-06T10:00:00Z,30.1889,-90.1683,1.0,6.2,140.0,7.2,'11111222,11111222,11111222' 
LUMCON,ioos:station:LUMCON:103:1,2005-04-06T11:00:00Z,30.1889,-90.1683,1.0,7.7,140.0,8.8,'11111222,11111222,11111222' 
LUMCON,ioos:station:LUMCON:103:1,2005-04-06T12:00:00Z,30.1889,-90.1683,1.0,7.7,140.0,8.2,'11111222,11111222,11111222' 
LUMCON,ioos:station:LUMCON:103:1,2005-04-06T13:00:00Z,30.1889,-90.1683,1.0,9.8,130.0,11.3,'11111222,11111222,11111222' 
LUMCON,ioos:station:LUMCON:103:1,2005-04-06T14:00:00Z,30.1889,-90.1683,1.0,6.7,130.0,7.7,'11111222,11111222,11111222' 
LUMCON,ioos:station:LUMCON:103:1,2005-04-06T15:00:00Z,30.1889,-90.1683,1.0,8.2,170.0,10.3,'11111222,11111222,11111222' 
LUMCON,ioos:station:LUMCON:103:1,2005-04-06T16:00:00Z,30.1889,-90.1683,1.0,6.7,140.0,8.2,'11111222,11111222,11111222' 
LUMCON,ioos:station:LUMCON:103:1,2005-04-06T17:00:00Z,30.1889,-90.1683,1.0,10.3,150.0,12.9,'11111222,11111222,11111222' 
LUMCON,ioos:station:LUMCON:103:1,2005-04-06T18:00:00Z,30.1889,-90.1683,1.0,8.8,160.0,10.3,'11111222,11111222,11111222' 
LUMCON,ioos:station:LUMCON:103:1,2005-04-06T19:00:00Z,30.1889,-90.1683,1.0,10.3,150.0,11.3,'11111222,11111222,11111222' 
LUMCON,ioos:station:LUMCON:103:1,2005-04-06T20:00:00Z,30.1889,-90.1683,1.0,9.3,140.0,10.8,'11111222,11111222,11111222' 
LUMCON,ioos:station:LUMCON:103:1,2005-04-06T21:00:00Z,30.1889,-90.1683,1.0,8.8,130.0,10.3,'11111222,11111222,11111222' 
LUMCON,ioos:station:LUMCON:103:1,2005-04-06T22:00:00Z,30.1889,-90.1683,1.0,7.7,210.0,10.8,'11111222,11111222,11111222' 
LUMCON,ioos:station:LUMCON:103:1,2005-04-06T23:00:00Z,30.1889,-90.1683,1.0,9.8,220.0,11.8,'11111222,11111222,11111222' 
LUMCON,ioos:station:LUMCON:103:1,2005-04-07T00:00:00Z,30.1889,-90.1683,1.0,8.2,220.0,10.3,'11111222,11111222,11111222' 
LUMCON,ioos:station:LUMCON:103:1,2005-04-07T01:00:00Z,30.1889,-90.1683,1.0,6.7,190.0,7.7,'11111222,11111222,11111222' 
LUMCON,ioos:station:LUMCON:103:1,2005-04-07T02:00:00Z,30.1889,-90.1683,1.0,7.7,210.0,8.2,'11111222,11111222,11111222' 
LUMCON,ioos:station:LUMCON:103:1,2005-04-07T03:00:00Z,30.1889,-90.1683,1.0,8.2,220.0,9.8,'11111222,11111222,11111222' 
LUMCON,ioos:station:LUMCON:103:1,2005-04-07T04:00:00Z,30.1889,-90.1683,1.0,7.2,230.0,8.8,'11111222,11111222,11111222' 
LUMCON,ioos:station:LUMCON:103:1,2005-04-07T05:00:00Z,30.1889,-90.1683,1.0,5.7,240.0,7.2,'11111222,11111222,11111222' 
LUMCON,ioos:station:LUMCON:103:1,2005-04-07T06:00:00Z,30.1889,-90.1683,1.0,5.1,240.0,5.7,'11111222,11111222,11111222' 
LUMCON,ioos:station:LUMCON:103:1,2005-04-07T07:00:00Z,30.1889,-90.1683,1.0,4.6,240.0,5.7,'11111222,11111222,11111222' 
LUMCON,ioos:station:LUMCON:103:1,2005-04-07T08:00:00Z,30.1889,-90.1683,1.0,4.6,240.0,5.7,'11111222,11111222,11111222' 
LUMCON,ioos:station:LUMCON:103:1,2005-04-07T09:00:00Z,30.1889,-90.1683,1.0,4.1,260.0,4.6,'11111222,11111222,11111222' 
LUMCON,ioos:station:LUMCON:103:1,2005-04-07T10:00:00Z,30.1889,-90.1683,1.0,3.6,260.0,4.6,'11111222,11111222,11111222' 
LUMCON,ioos:station:LUMCON:103:1,2005-04-07T11:00:00Z,30.1889,-90.1683,1.0,7.7,270.0,9.8,'11111222,11111222,11111222' 
LUMCON,ioos:station:LUMCON:103:1,2005-04-07T12:00:00Z,30.1889,-90.1683,1.0,5.7,280.0,6.7,'11111222,11111222,11111222' 
LUMCON,ioos:station:LUMCON:103:1,2005-04-07T13:00:00Z,30.1889,-90.1683,1.0,5.7,270.0,7.2,'11111222,11111222,11111222' 
LUMCON,ioos:station:LUMCON:103:1,2005-04-07T14:00:00Z,30.1889,-90.1683,1.0,8.2,270.0,9.3,'11111222,11111222,11111222' 
LUMCON,ioos:station:LUMCON:103:1,2005-04-07T15:00:00Z,30.1889,-90.1683,1.0,7.2,250.0,9.3,'11111222,11111222,11111222' 
LUMCON,ioos:station:LUMCON:103:1,2005-04-07T16:00:00Z,30.1889,-90.1683,1.0,6.7,250.0,9.8,'11111222,11111222,11111222' 
LUMCON,ioos:station:LUMCON:103:1,2005-04-07T17:00:00Z,30.1889,-90.1683,1.0,7.7,250.0,9.8,'11111222,11111222,11111222' 
LUMCON,ioos:station:LUMCON:103:1,2005-04-07T18:00:00Z,30.1889,-90.1683,1.0,7.2,250.0,9.8,'11111222,11111222,11111222' 
LUMCON,ioos:station:LUMCON:103:1,2005-04-07T19:00:00Z,30.1889,-90.1683,1.0,6.7,290.0,9.3,'11111222,11111222,11111222' 
LUMCON,ioos:station:LUMCON:103:1,2005-04-07T20:00:00Z,30.1889,-90.1683,1.0,5.1,300.0,8.8,'11111222,11111222,11111222' 
LUMCON,ioos:station:LUMCON:103:1,2005-04-07T21:00:00Z,30.1889,-90.1683,1.0,6.7,290.0,9.3,'11111222,11111222,11111222' 
LUMCON,ioos:station:LUMCON:103:1,2005-04-07T22:00:00Z,30.1889,-90.1683,1.0,5.1,320.0,7.2,'11111222,11111222,11111222' 
LUMCON,ioos:station:LUMCON:103:1,2005-04-07T23:00:00Z,30.1889,-90.1683,1.0,4.1,290.0,5.1,'11111222,11111222,11111222' 
LUMCON,ioos:station:LUMCON:103:1,2005-04-08T00:00:00Z,30.1889,-90.1683,1.0,5.1,280.0,6.7,'11111222,11111222,11111222' 
LUMCON,ioos:station:LUMCON:103:1,2005-04-08T01:00:00Z,30.1889,-90.1683,1.0,3.6,280.0,4.1,'11111222,11111222,11111222' 
LUMCON,ioos:station:LUMCON:103:1,2005-04-08T02:00:00Z,30.1889,-90.1683,1.0,5.1,270.0,7.2,'11111222,11111222,11111222' 
LUMCON,ioos:station:LUMCON:103:1,2005-04-08T03:00:00Z,30.1889,-90.1683,1.0,4.1,260.0,5.1,'11111222,11111222,11111222' 
LUMCON,ioos:station:LUMCON:103:1,2005-04-08T04:00:00Z,30.1889,-90.1683,1.0,3.6,260.0,4.1,'11111222,11111222,11111222' 
LUMCON,ioos:station:LUMCON:103:1,2005-04-08T05:00:00Z,30.1889,-90.1683,1.0,4.1,260.0,5.1,'11111222,11111222,11111222' 
LUMCON,ioos:station:LUMCON:103:1,2005-04-08T06:00:00Z,30.1889,-90.1683,1.0,4.1,270.0,5.7,'11111222,11111222,11111222' 
LUMCON,ioos:station:LUMCON:103:1,2005-04-08T07:00:00Z,30.1889,-90.1683,1.0,3.6,270.0,4.6,'11111222,11111222,11111222' 
LUMCON,ioos:station:LUMCON:103:1,2005-04-08T08:00:00Z,30.1889,-90.1683,1.0,5.1,290.0,6.2,'11111222,11111222,11111222' 
LUMCON,ioos:station:LUMCON:103:1,2005-04-08T09:00:00Z,30.1889,-90.1683,1.0,4.6,290.0,5.7,'11111222,11111222,11111222' 
LUMCON,ioos:station:LUMCON:103:1,2005-04-08T10:00:00Z,30.1889,-90.1683,1.0,3.6,280.0,4.1,'11111222,11111222,11111222' 
LUMCON,ioos:station:LUMCON:103:1,2005-04-08T11:00:00Z,30.1889,-90.1683,1.0,3.6,300.0,5.1,'11111222,11111222,11111222' 
LUMCON,ioos:station:LUMCON:103:1,2005-04-08T12:00:00Z,30.1889,-90.1683,1.0,3.6,300.0,4.6,'11111222,11111222,11111222' 
LUMCON,ioos:station:LUMCON:103:1,2005-04-08T13:00:00Z,30.1889,-90.1683,1.0,5.7,320.0,8.2,'11111222,11111222,11111222' 
LUMCON,ioos:station:LUMCON:103:1,2005-04-08T14:00:00Z,30.1889,-90.1683,1.0,6.7,340.0,8.2,'11111222,11111222,11111222' 
LUMCON,ioos:station:LUMCON:103:1,2005-04-08T15:00:00Z,30.1889,-90.1683,1.0,6.7,320.0,8.8,'11111222,11111222,11111222' 
LUMCON,ioos:station:LUMCON:103:1,2005-04-08T16:00:00Z,30.1889,-90.1683,1.0,5.1,330.0,6.7,'11111222,11111222,11111222' 
LUMCON,ioos:station:LUMCON:103:1,2005-04-08T17:00:00Z,30.1889,-90.1683,1.0,6.2,330.0,7.7,'11111222,11111222,11111222' 
LUMCON,ioos:station:LUMCON:103:1,2005-04-08T18:00:00Z,30.1889,-90.1683,1.0,4.6,310.0,6.7,'11111222,11111222,11111222' 
LUMCON,ioos:station:LUMCON:103:1,2005-04-08T19:00:00Z,30.1889,-90.1683,1.0,5.1,320.0,8.8,'11111222,11111222,11111222' 
LUMCON,ioos:station:LUMCON:103:1,2005-04-08T20:00:00Z,30.1889,-90.1683,1.0,3.6,300.0,6.7,'11111222,11111222,11111222' 
LUMCON,ioos:station:LUMCON:103:1,2005-04-08T21:00:00Z,30.1889,-90.1683,1.0,4.6,320.0,7.2,'11111222,11111222,11111222' 
LUMCON,ioos:station:LUMCON:103:1,2005-04-08T22:00:00Z,30.1889,-90.1683,1.0,4.1,330.0,5.1,'11111222,11111222,11111222' 
LUMCON,ioos:station:LUMCON:103:1,2005-04-08T23:00:00Z,30.1889,-90.1683,1.0,4.1,0.0,5.1,'11111222,11111222,11111222' 
LUMCON,ioos:station:LUMCON:103:1,2005-04-09T00:00:00Z,30.1889,-90.1683,1.0,3.1,40.0,4.6,'11111222,11111222,11111222' 
LUMCON,ioos:station:LUMCON:103:1,2005-04-09T01:00:00Z,30.1889,-90.1683,1.0,2.1,50.0,2.6,'11111222,11111222,11111222' 
LUMCON,ioos:station:LUMCON:103:1,2005-04-09T02:00:00Z,30.1889,-90.1683,1.0,2.6,60.0,3.1,'11111222,11111222,11111222' 
LUMCON,ioos:station:LUMCON:103:1,2005-04-09T03:00:00Z,30.1889,-90.1683,1.0,3.6,60.0,4.6,'11111222,11111222,11111222' 
LUMCON,ioos:station:LUMCON:103:1,2005-04-09T04:00:00Z,30.1889,-90.1683,1.0,6.2,60.0,6.7,'11111222,11111222,11111222' 
LUMCON,ioos:station:LUMCON:103:1,2005-04-09T05:00:00Z,30.1889,-90.1683,1.0,5.7,70.0,6.2,'11111222,11111222,11111222' 
LUMCON,ioos:station:LUMCON:103:1,2005-04-09T06:00:00Z,30.1889,-90.1683,1.0,6.7,80.0,7.7,'11111222,11111222,11111222' 
LUMCON,ioos:station:LUMCON:103:1,2005-04-09T07:00:00Z,30.1889,-90.1683,1.0,5.1,80.0,6.2,'11111222,11111222,11111222' 
LUMCON,ioos:station:LUMCON:103:1,2005-04-09T08:00:00Z,30.1889,-90.1683,1.0,4.6,90.0,5.7,'11111222,11111222,11111222' 
LUMCON,ioos:station:LUMCON:103:1,2005-04-09T09:00:00Z,30.1889,-90.1683,1.0,3.1,100.0,3.6,'11111222,11111222,11111222' 
LUMCON,ioos:station:LUMCON:103:1,2005-04-09T10:00:00Z,30.1889,-90.1683,1.0,2.6,90.0,3.1,'11111222,11111222,11111222' 